Vorticity
1 4 2 3 5 9 1 -0 2 1 -1 2 4 6 8 7 7 6 9 8 8 7 8 8 8 7 7 7 6 5 5 4 8
2 2 5 4 3 7 3 5 4 4 4 3 3 3 4 6 7 5 8 8 11 12 11 9 10 10 10 7 8 6 6 6 5
4 4 6 6 5 5 6 5 6 5 4 4 4 5 6 6 9 9 8 10 10 11 13 13 11 14 12 11 10 8 5 7 7
4 4 4 6 6 7 7 8 7 9 9 10 9 9 8 8 10 9 10 8 7 6 8 10 11 13 14 17 19 19 19 12 3
4 4 6 7 9 10 11 11 10 11 11 11 12 9 8 10 11 11 8 6 6 7 13 14 10 6 4 3 4 4 5 9 16
4 7 8 10 11 11 13 13 14 14 13 13 12 11 11 11 10 11 9 14 16 14 9 4 1 2 3 3 4 5 6 6 6
9 9 10 12 15 18 19 20 18 15 11 10 12 11 12 12 11 12 14 16 10 5 2 -0 2 4 3 3 5 6 7 8 8
10 10 12 21 22 18 20 19 19 15 13 13 11 13 13 12 11 11 12 11 5 2 1 -0 1 3 4 4 6 6 9 10 8
9 15 20 18 13 16 15 12 10 11 11 11 9 9 15 11 11 15 10 13 3 1 0 -1 1 3 3 3 5 7 11 14 9
17 17 14 12 15 6 5 4 6 7 11 9 9 11 12 17 20 21 10 11 7 0 1 -1 3 3 4 3 5 9 9 10 9
14 11 13 11 6 4 8 8 6 7 8 8 5 3 3 7 15 13 22 8 12 4 3 2 1 2 4 5 9 8 9 8 4
11 12 12 9 6 1 4 5 7 7 9 10 6 4 5 4 4 21 16 16 9 12 3 5 1 2 3 2 11 7 6 8 9
9 11 10 8 6 5 4 4 4 3 4 5 8 6 6 6 6 4 15 22 9 12 8 4 3 2 3 3 10 7 8 5 1
12 11 11 8 7 6 5 4 3 3 4 4 7 10 10 8 5 8 11 23 11 8 10 6 4 3 4 5 13 6 3 5 7
9 11 9 7 7 7 7 6 4 6 7 8 7 10 10 10 11 8 12 19 14 7 9 6 4 4 4 6 14 6 5 3 4
8 7 5 6 7 7 8 9 10 10 9 10 11 12 11 11 11 10 12 19 15 7 8 6 4 5 5 8 15 8 7 6 13
6 8 5 6 7 8 8 9 8 12 19 22 19 22 20 18 14 12 12 17 15 7 8 6 4 6 8 9 9 9 6 6 3
7 7 5 5 4 4 6 9 10 10 19 9 10 13 15 16 16 14 14 15 11 9 6 5 8 6 8 7 7 9 6 4 5
3 3 3 4 6 8 9 11 12 11 15 9 9 12 10 10 15 14 17 14 12 10 7 8 6 6 7 7 8 7 5 5 4
2 4 7 11 12 13 12 12 12 13 11 10 7 9 12 11 9 9 15 13 9 8 7 7 6 6 6 7 5 5 5 5 4
Height
5855 5853 5851 5848 5845 5843 5840 5837 5835 5833 5830 5828 5827 5825 5823 5821 5819 5818 5817 5815 5814 5813 5812 5813 5813 5814 5814 5814 5815 5816 5817 5818 5819
5851 5849 5846 5843 5840 5837 5834 5831 5829 5826 5824 5822 5819 5817 5816 5814 5812 5811 5810 5809 5807 5806 5805 5806 5806 5807 5808 5808 5809 5810 5811 5812 5813
5846 5843 5840 5837 5833 5830 5827 5824 5821 5818 5816 5814 5811 5810 5809 5807 5805 5804 5803 5802 5801 5800 5800 5800 5800 5800 5801 5801 5802 5803 5805 5806 5807
5841 5837 5833 5830 5826 5822 5818 5815 5812 5809 5807 5805 5803 5801 5800 5799 5798 5797 5796 5795 5795 5795 5795 5795 5795 5795 5795 5797 5798 5799 5800 5801 5802
5834 5830 5826 5821 5816 5812 5809 5805 5802 5799 5798 5796 5795 5794 5793 5792 5791 5791 5790 5789 5790 5790 5791 5791 5792 5793 5794 5794 5795 5795 5796 5796 5797
5826 5822 5817 5812 5807 5803 5799 5795 5793 5791 5789 5788 5787 5787 5786 5785 5784 5784 5783 5784 5784 5785 5786 5788 5789 5789 5789 5790 5791 5792 5792 5792 5793
5817 5812 5807 5802 5797 5793 5790 5787 5785 5784 5783 5782 5781 5780 5779 5778 5777 5777 5777 5778 5780 5780 5782 5783 5783 5784 5785 5786 5786 5786 5786 5786 5787
5808 5803 5798 5794 5789 5786 5783 5781 5779 5778 5777 5776 5775 5774 5773 5771 5770 5771 5771 5772 5774 5775 5777 5778 5778 5778 5779 5780 5780 5779 5779 5780 5781
5802 5796 5792 5787 5784 5781 5779 5777 5775 5774 5772 5771 5770 5768 5767 5765 5764 5764 5765 5766 5768 5770 5771 5772 5773 5773 5774 5774 5774 5774 5773 5773 5774
5795 5790 5786 5783 5780 5778 5776 5774 5772 5770 5768 5766 5765 5763 5761 5759 5758 5758 5758 5760 5762 5764 5765 5766 5767 5767 5768 5768 5767 5766 5766 5766 5766
5789 5785 5782 5779 5777 5775 5773 5770 5768 5766 5764 5762 5761 5759 5757 5754 5752 5751 5752 5753 5755 5757 5758 5759 5760 5761 5761 5760 5760 5759 5758 5757 5757
5784 5781 5778 5776 5774 5771 5769 5767 5764 5762 5760 5758 5756 5753 5751 5749 5747 5745 5745 5745 5747 5749 5751 5753 5754 5754 5754 5754 5752 5751 5749 5748 5748
5780 5777 5774 5772 5770 5767 5765 5762 5760 5757 5755 5753 5750 5747 5745 5743 5742 5740 5738 5738 5739 5741 5744 5746 5746 5747 5747 5746 5744 5742 5741 5740 5739
5775 5772 5769 5767 5765 5763 5760 5758 5755 5751 5748 5746 5743 5740 5737 5736 5735 5733 5732 5730 5731 5733 5736 5738 5739 5740 5740 5739 5736 5735 5734 5732 5729
5771 5768 5764 5762 5760 5757 5754 5751 5748 5744 5740 5737 5734 5731 5729 5727 5726 5725 5724 5722 5724 5726 5729 5731 5732 5732 5732 5731 5728 5727 5726 5722 5718
5767 5763 5760 5757 5754 5751 5747 5744 5741 5737 5732 5728 5725 5722 5720 5718 5717 5717 5715 5715 5717 5719 5721 5723 5724 5724 5724 5723 5721 5719 5716 5712 5710
5762 5759 5755 5752 5749 5745 5742 5737 5733 5730 5725 5720 5716 5712 5711 5710 5709 5708 5708 5709 5710 5712 5714 5716 5716 5716 5716 5714 5714 5712 5708 5704 5700
5757 5753 5750 5746 5742 5739 5734 5730 5726 5722 5718 5714 5711 5708 5704 5702 5702 5702 5702 5702 5704 5705 5707 5708 5709 5708 5708 5707 5706 5705 5701 5697 5692
5750 5746 5743 5739 5735 5731 5727 5723 5719 5715 5712 5709 5707 5704 5701 5698 5695 5695 5695 5696 5698 5699 5700 5701 5701 5701 5700 5700 5700 5698 5695 5691 5687
5742 5737 5734 5730 5726 5723 5719 5716 5713 5709 5706 5704 5701 5699 5697 5696 5693 5689 5688 5690 5692 5693 5693 5693 5694 5694 5693 5693 5693 5692 5689 5685 5682